Location: Observatorio del Centro Ecologico de Sonora
(29.0667°N, 110.9333°W)
Time: 19:15:59
(UTC-07:00)

ISS - Visible Passes

Search period start: 22 October 2014 00:00
Search period end: 01 November 2014 00:00
Orbit: 413 x 416 km, 51.6° (Epoch: 22 October)

Date Brightness Start Highest point End Pass type
(mag) Time Alt. Az. Time Alt. Az. Time Alt. Az.
25 Oct -1.8 19:01:03 10° NNW 19:03:08 25° NNE 19:03:08 25° NNE visible
26 Oct -1.4 18:12:29 10° N 18:14:37 16° NE 18:16:36 11° ENE visible
26 Oct -0.5 19:48:19 10° WNW 19:49:30 19° WNW 19:49:30 19° WNW visible
27 Oct -3.3 18:58:52 10° NW 19:02:11 79° SW 19:03:13 41° SSE visible
28 Oct -3.0 18:09:40 10° NNW 18:12:53 46° NE 18:16:05 10° ESE visible
29 Oct -0.6 18:57:30 10° WNW 19:00:01 20° SW 19:02:32 10° S visible
30 Oct -1.9 18:07:36 10° WNW 18:10:46 42° SW 18:13:55 10° SSE visible
